Refine Search
Year Filed

2002 ×

Court

Virginia Eastern ×

Click on desired case number or refine your search to continue

Case TitleCourtCase NoChpDate FiledClosedDisposition
US Airways Group, Inc.Virginia Eastern1:02-bk-839841108/11/200212/06/2005Discharge Not Applicable
Independent Telephone Services, Inc.Virginia Eastern1:02-bk-83425707/11/200212/16/2005Discharge Not Applicable
Motient CorporationVirginia Eastern1:02-bk-801251101/10/200212/30/2002Discharge Not Applicable
Dulles South CorporationVirginia Eastern1:02-bk-83655707/24/200204/15/2005Discharge Not Applicable
Creda, Inc.Virginia Eastern1:02-bk-851171110/16/200211/05/2004Discharge Not Applicable
Ceyoniq Inc.Virginia Eastern1:02-bk-858871112/03/200203/30/2007Discharge Not Applicable
Orion Direct, Inc.Virginia Eastern1:02-bk-84694709/20/200204/13/2007Discharge Not Applicable
P.D.S. Trucking, Inc.Virginia Eastern1:02-bk-85760711/22/200208/20/2012Discharge Not Applicable
Scuderia-Maranello Motorsports, Inc.Virginia Eastern1:02-bk-85732711/21/200209/10/2003Discharge Not Applicable
Federal Technologies, Inc.Virginia Eastern1:02-bk-846451109/18/200203/02/2005Dismissed for Other Reason
Global Press Inc.Virginia Eastern1:02-bk-82755706/04/200206/13/2003Discharge Not Applicable
TA Acquisition Corp.Virginia Eastern1:02-bk-81277703/15/200212/07/2009Discharge Not Applicable
PowerTrust.Com, Inc.Virginia Eastern1:02-bk-80015701/02/200210/13/2009Discharge Not Applicable
NAGAI Concepts, L.L.C.Virginia Eastern1:02-bk-81040703/05/200206/13/2003Discharge Not Applicable
Fairchild Dornier CorporationVirginia Eastern1:02-bk-82004704/24/200203/06/2009Discharge Not Applicable
Vingage CorporationVirginia Eastern1:02-bk-819061104/19/200203/24/2005Discharge Not Applicable
Reed's Trucking, Inc.Virginia Eastern3:02-bk-63736704/29/200209/03/2002Discharge Not Applicable
Open Plan Systems, Inc.Virginia Eastern3:02-bk-64657705/30/200212/05/2013Discharge Not Applicable
Farthing Limited, Inc., a Virginia CorporationVirginia Eastern1:02-bk-862511112/27/200205/13/2003Dismissed for Other Reason 05/01/2003
Millennium Construction Services, Inc.Virginia Eastern1:02-bk-851291110/17/200203/11/2005Dismissed for Other Reason 02/22/2005
Commonwealth Enterprises, LLCVirginia Eastern2:02-bk-72947705/01/200206/27/2005Discharge Not Applicable
US Airways Leasing and Sales, Inc.Virginia Eastern1:02-bk-839901108/11/200208/20/2004Discharge Not Applicable
Henninger Capitol, LLCVirginia Eastern1:02-bk-834691107/15/200203/24/2004Discharge Not Applicable
MidAtlantic Airways, Inc.Virginia Eastern1:02-bk-839891108/11/200208/20/2004Discharge Not Applicable
Summs Recovery and Collections, Inc.Virginia Eastern3:02-bk-65047706/12/200204/10/2008Discharge Not Applicable
Dornier Aviation (North America) Inc. and DANA Liquidating TrustVirginia Eastern1:02-bk-820031104/24/200201/26/2010Discharge Not Applicable
Glover Industries, L.L.C.Virginia Eastern3:02-bk-67570709/04/200203/05/2013Discharge Not Applicable
Material Services Company, Inc.Virginia Eastern1:02-bk-839911108/11/200208/20/2004Discharge Not Applicable
Virginia-Pacific Corporation, et al and Green Trees Leasing, LLCVirginia Eastern3:02-bk-67569709/04/200203/13/2013Discharge Not Applicable
Automotive Foreign Parts, Inc.Virginia Eastern1:02-bk-81476703/27/2002
US Airways, Inc.Virginia Eastern1:02-bk-839851108/11/200208/20/2004Discharge Not Applicable
Cambrian Communications LLCVirginia Eastern1:02-bk-846991109/20/200204/07/2006Discharge Not Applicable
Henninger Media Services, Inc.Virginia Eastern1:02-bk-834681107/15/200203/24/2004Discharge Not Applicable
Bender's Venetian Blinds, IncVirginia Eastern3:02-bk-65594706/30/200209/21/2004Discharge Not Applicable
Barlow Underground Construction Kompany, Inc.Virginia Eastern1:02-bk-82126705/02/200212/16/2002Discharge Not Applicable
ACRH Enterprises, Inc.Virginia Eastern1:02-bk-82683705/31/200203/22/2005Discharge Not Applicable
Automated Technology Exchange, Inc.Virginia Eastern1:02-bk-85293710/28/200208/23/2004Discharge Not Applicable
Village FoundationVirginia Eastern1:02-bk-82577705/23/200204/18/2007Discharge Not Applicable
Cambrian Holdings LLCVirginia Eastern1:02-bk-847001109/20/200204/10/2006Discharge Not Applicable
Taylor Farms, L.L.C.Virginia Eastern2:02-bk-730721105/06/200203/07/2008Discharge Not Applicable
Future Finance Company, Inc.Virginia Eastern2:02-bk-70457701/25/200210/23/2007Discharge Not Applicable